,,,PA_Meas_PMT16A,,PR_Meas_QMR101_102,,RH_Meas_QMH101,,SR_Meas_QMS101,,TA_Meas_QMH101,,GenWind,,GenWind,
date,time,status,PA,status,PR,status,RH,status,SR,status,TA,status,DirAvg,status,SpdAvg,
2010-11-25, 00:00:04,VALID,998.738,VALID,0,VALID,89.1826,VALID,0,VALID,24.4019,VALID,261,VALID,0.174609,
2010-11-25, 00:01:04,VALID,998.723,VALID,0,VALID,89.0834,VALID,0,VALID,24.4019,VALID,261,VALID,0.0632813,
2010-11-25, 00:02:04,VALID,998.697,VALID,0,VALID,89.0529,VALID,0,VALID,24.3824,VALID,261,VALID,0.360938,
2010-11-25, 00:03:04,VALID,998.701,VALID,0,VALID,89.2132,VALID,0,VALID,24.3824,VALID,261,VALID,0.286719,
2010-11-25, 00:04:04,VALID,998.689,VALID,0,VALID,89.0453,VALID,0,VALID,24.3629,VALID,261,VALID,0.462109,
2010-11-25, 00:05:04,VALID,998.686,VALID,0,VALID,88.8927,VALID,0,VALID,24.3433,VALID,261,VALID,0.394922,
2010-11-25, 00:06:04,VALID,998.68,VALID,0,VALID,88.9232,VALID,0,VALID,24.3629,VALID,261,VALID,0.476953,
2010-11-25, 00:07:04,VALID,998.647,VALID,0,VALID,88.8774,VALID,0,VALID,24.3433,VALID,310,VALID,0.78125,
2010-11-25, 00:08:04,VALID,998.651,VALID,0,VALID,88.824,VALID,0.112286,VALID,24.2848,VALID,345,VALID,0.721875,
2010-11-25, 00:09:04,VALID,998.609,VALID,0,VALID,89.114,VALID,0,VALID,24.2263,VALID,345,VALID,0.444531,
2010-11-25, 00:10:04,VALID,998.656,VALID,0,VALID,89.381,VALID,0,VALID,24.1891,VALID,345,VALID,0.532812,
2010-11-25, 00:11:04,VALID,998.617,VALID,0,VALID,89.7167,VALID,0,VALID,24.15,VALID,345,VALID,0.531641,
2010-11-25, 00:12:04,VALID,998.578,VALID,0,VALID,89.9837,VALID,0,VALID,24.1305,VALID,345,VALID,0.208203,
2010-11-25, 00:13:04,VALID,998.56,VALID,0,VALID,90.1058,VALID,0,VALID,24.111,VALID,345,VALID,0.0703125,
2010-11-25, 00:14:04,VALID,998.514,VALID,0,VALID,90.266,VALID,0,VALID,24.0915,VALID,345,VALID,0,
2010-11-25, 00:15:04,VALID,998.482,VALID,0,VALID,90.4034,VALID,0,VALID,24.072,VALID,345,VALID,0,
2010-11-25, 00:16:04,VALID,998.448,VALID,0,VALID,90.5178,VALID,0,VALID,24.0525,VALID,345,VALID,0,
2010-11-25, 00:17:04,VALID,998.435,VALID,0,VALID,90.6094,VALID,0,VALID,24.0525,VALID,345,VALID,0,
2010-11-25, 00:18:04,VALID,998.396,VALID,0,VALID,90.6933,VALID,0,VALID,24.0329,VALID,345,VALID,0,
2010-11-25, 00:19:04,VALID,998.384,VALID,0,VALID,90.7772,VALID,0,VALID,24.0134,VALID,345,VALID,0.677734,
2010-11-25, 00:20:04,VALID,998.353,VALID,0,VALID,90.9069,VALID,0,VALID,24.0329,VALID,89,VALID,0.921094,
2010-11-25, 00:21:04,VALID,998.308,VALID,0,VALID,90.7849,VALID,0,VALID,24.0329,VALID,89,VALID,0.882031,
2010-11-25, 00:22:04,VALID,998.326,VALID,0,VALID,90.7009,VALID,0,VALID,24.0329,VALID,102,VALID,1.06992,
2010-11-25, 00:23:04,VALID,998.231,VALID,0,VALID,90.7238,VALID,0,VALID,24.0525,VALID,102,VALID,1.00586,
2010-11-25, 00:24:04,VALID,998.265,VALID,0,VALID,90.7314,VALID,0,VALID,24.0525,VALID,107,VALID,0.863281,
2010-11-25, 00:25:04,VALID,998.233,VALID,0,VALID,90.6628,VALID,0,VALID,24.0506,VALID,108,VALID,0.723828,
2010-11-25, 00:26:04,VALID,998.211,VALID,0,VALID,90.5331,VALID,0,VALID,24.0701,VALID,108,VALID,0.7125,
2010-11-25, 00:27:04,VALID,998.181,VALID,0,VALID,90.472,VALID,0,VALID,24.0897,VALID,108,VALID,0.645703,
2010-11-25, 00:28:04,VALID,998.165,VALID,0,VALID,90.3271,VALID,0,VALID,24.0897,VALID,133,VALID,0.932422,
2010-11-25, 00:29:04,VALID,998.144,VALID,0,VALID,90.1974,VALID,0,VALID,24.1092,VALID,133,VALID,0.833203,
2010-11-25, 00:30:04,VALID,998.147,VALID,0,VALID,90.06,VALID,0,VALID,24.1482,VALID,133,VALID,0.790234,
2010-11-25, 00:31:04,VALID,998.114,VALID,0,VALID,89.9761,VALID,0,VALID,24.1677,VALID,133,VALID,0.631641,
2010-11-25, 00:32:04,VALID,998.134,VALID,0,VALID,89.8846,VALID,0,VALID,24.1677,VALID,133,VALID,0.371484,
2010-11-25, 00:33:04,VALID,998.149,VALID,0,VALID,89.7167,VALID,0,VALID,24.1677,VALID,133,VALID,0.414063,
2010-11-25, 00:34:04,VALID,998.13,VALID,0,VALID,89.7167,VALID,0,VALID,24.15,VALID,52,VALID,0.973828,
2010-11-25, 00:35:04,VALID,998.132,VALID,0,VALID,90.0982,VALID,0,VALID,24.1482,VALID,52,VALID,0.873047,
2010-11-25, 00:36:04,VALID,998.123,VALID,0,VALID,90.2584,VALID,0,VALID,24.1696,VALID,52,VALID,0.677344,
2010-11-25, 00:37:04,VALID,998.118,VALID,0,VALID,90.3423,VALID,0,VALID,24.1482,VALID,52,VALID,0.655078,
2010-11-25, 00:38:04,VALID,998.132,VALID,0,VALID,90.3576,VALID,0,VALID,24.15,VALID,52,VALID,0.483594,
2010-11-25, 00:39:04,VALID,998.122,VALID,0,VALID,90.4568,VALID,0,VALID,24.1287,VALID,52,VALID,0.721875,
2010-11-25, 00:40:04,VALID,998.136,VALID,0,VALID,90.6017,VALID,0,VALID,24.1482,VALID,135,VALID,1.22305,
2010-11-25, 00:41:04,VALID,998.111,VALID,0,VALID,90.6704,VALID,0,VALID,24.15,VALID,135,VALID,1.0293,
2010-11-25, 00:42:04,VALID,998.109,VALID,0,VALID,90.7314,VALID,0,VALID,24.1696,VALID,145,VALID,1.05195,
2010-11-25, 00:43:04,VALID,998.092,VALID,0,VALID,90.6475,VALID,0,VALID,24.1482,VALID,145,VALID,0.885547,
2010-11-25, 00:44:04,VALID,998.052,VALID,0,VALID,90.4415,VALID,0,VALID,24.1891,VALID,146,VALID,1.13672,
2010-11-25, 00:45:04,VALID,998.071,VALID,0,VALID,90.1134,VALID,0,VALID,24.2067,VALID,146,VALID,0.76875,
2010-11-25, 00:46:04,VALID,998.024,VALID,0,VALID,89.6023,VALID,0,VALID,24.2653,VALID,145,VALID,1.11133,
2010-11-25, 00:47:04,VALID,998.042,VALID,0,VALID,89.2589,VALID,0,VALID,24.2848,VALID,133,VALID,1.1082,
2010-11-25, 00:48:04,VALID,998.006,VALID,0,VALID,89.0453,VALID,0,VALID,24.3043,VALID,133,VALID,0.808203,
2010-11-25, 00:49:04,VALID,997.99,VALID,0,VALID,88.9766,VALID,0,VALID,24.3043,VALID,133,VALID,0.748438,
2010-11-25, 00:50:04,VALID,997.977,VALID,0,VALID,88.9003,VALID,0,VALID,24.3062,VALID,133,VALID,0.748828,
2010-11-25, 00:51:04,VALID,997.963,VALID,0,VALID,88.9003,VALID,0,VALID,24.2848,VALID,127,VALID,0.858594,
2010-11-25, 00:52:04,VALID,997.981,VALID,0,VALID,88.9385,VALID,0,VALID,24.2653,VALID,127,VALID,0.707812,
2010-11-25, 00:53:04,VALID,997.995,VALID,0,VALID,88.9309,VALID,0,VALID,24.2671,VALID,127,VALID,0.665625,
2010-11-25, 00:54:04,VALID,997.993,VALID,0,VALID,88.9843,VALID,0,VALID,24.2458,VALID,127,VALID,0.673047,
2010-11-25, 00:55:04,VALID,998.067,VALID,0,VALID,89.0834,VALID,0,VALID,24.2495,VALID,127,VALID,0.375781,
2010-11-25, 00:56:04,VALID,998.094,VALID,0,VALID,89.1063,VALID,0,VALID,24.2281,VALID,127,VALID,0.278516,
2010-11-25, 00:57:04,VALID,998.088,VALID,0,VALID,89.0987,VALID,0,VALID,24.2104,VALID,127,VALID,0.298047,
2010-11-25, 00:58:04,VALID,998.107,VALID,0,VALID,89.236,VALID,0,VALID,24.1696,VALID,127,VALID,0.503516,
2010-11-25, 00:59:04,VALID,998.126,VALID,0,VALID,89.381,VALID,0,VALID,24.15,VALID,127,VALID,0.346875,
2010-11-25, 01:00:04,VALID,998.131,VALID,0,VALID,89.5183,VALID,0,VALID,24.1714,VALID,127,VALID,0.164844,
2010-11-25, 01:01:04,VALID,998.157,VALID,0,VALID,89.5946,VALID,0,VALID,24.1324,VALID,127,VALID,0.00351562,
2010-11-25, 01:02:04,VALID,998.143,VALID,0,VALID,89.6709,VALID,0,VALID,24.111,VALID,127,VALID,0.308203,
2010-11-25, 01:03:04,VALID,998.128,VALID,0,VALID,89.8846,VALID,0,VALID,24.1128,VALID,127,VALID,0.428125,
2010-11-25, 01:04:04,VALID,998.144,VALID,0,VALID,90.0829,VALID,0,VALID,24.072,VALID,127,VALID,0.363672,
2010-11-25, 01:05:04,VALID,998.142,VALID,0,VALID,90.2584,VALID,0,VALID,24.072,VALID,127,VALID,0,
2010-11-25, 01:06:04,VALID,998.125,VALID,0,VALID,90.3118,VALID,0,VALID,24.072,VALID,127,VALID,0,
2010-11-25, 01:07:04,VALID,998.128,VALID,0,VALID,90.4034,VALID,0,VALID,24.0738,VALID,127,VALID,0.362891,
2010-11-25, 01:08:04,VALID,998.131,VALID,0,VALID,90.5026,VALID,0,VALID,24.0738,VALID,127,VALID,0.4125,
2010-11-25, 01:09:04,VALID,998.108,VALID,0,VALID,90.556,VALID,0,VALID,24.0525,VALID,127,VALID,0.23125,
2010-11-25, 01:10:04,VALID,998.101,VALID,0,VALID,90.5788,VALID,0,VALID,24.0525,VALID,127,VALID,0.370313,
2010-11-25, 01:11:04,VALID,998.072,VALID,0,VALID,90.5865,VALID,0,VALID,24.0525,VALID,123,VALID,0.549609,
2010-11-25, 01:12:04,VALID,998.059,VALID,0,VALID,90.5483,VALID,0,VALID,24.0738,VALID,117,VALID,0.608984,
2010-11-25, 01:13:04,VALID,998.016,VALID,0,VALID,90.4949,VALID,0,VALID,24.0525,VALID,99,VALID,0.773438,
2010-11-25, 01:14:04,VALID,998.015,VALID,0,VALID,90.4339,VALID,0,VALID,24.0329,VALID,26,VALID,1.11133,
2010-11-25, 01:15:04,VALID,997.989,VALID,0,VALID,90.4034,VALID,0,VALID,24.0329,VALID,23,VALID,1.19258,
2010-11-25, 01:16:04,VALID,997.986,VALID,0,VALID,90.5331,VALID,0,VALID,23.9939,VALID,23,VALID,1.02227,
2010-11-25, 01:17:04,VALID,997.966,VALID,0,VALID,90.617,VALID,0,VALID,23.9744,VALID,23,VALID,1.00234,
2010-11-25, 01:18:04,VALID,997.973,VALID,0,VALID,90.7391,VALID,0,VALID,23.9549,VALID,23,VALID,0.95625,
2010-11-25, 01:19:04,VALID,997.948,VALID,0,VALID,90.823,VALID,0,VALID,23.9567,VALID,23,VALID,0.970703,
2010-11-25, 01:20:04,VALID,997.903,VALID,0,VALID,90.8993,VALID,0,VALID,23.9159,VALID,23,VALID,0.947656,
2010-11-25, 01:21:04,VALID,997.935,VALID,0,VALID,90.9603,VALID,0,VALID,23.9159,VALID,23,VALID,0.717578,
2010-11-25, 01:22:04,VALID,997.922,VALID,0,VALID,91.0214,VALID,0,VALID,23.9177,VALID,23,VALID,0.674609,
2010-11-25, 01:23:04,VALID,997.926,VALID,0,VALID,91.0366,VALID,0,VALID,23.9177,VALID,23,VALID,0.758203,
2010-11-25, 01:24:04,VALID,997.936,VALID,0,VALID,91.1053,VALID,0,VALID,23.8768,VALID,23,VALID,0.964844,
2010-11-25, 01:25:04,VALID,997.909,VALID,0,VALID,91.174,VALID,0,VALID,23.875,VALID,23,VALID,0.941016,
2010-11-25, 01:26:04,VALID,997.871,VALID,0,VALID,91.2503,VALID,0,VALID,23.875,VALID,23,VALID,0.946484,
2010-11-25, 01:27:04,VALID,997.895,VALID,0,VALID,91.2884,VALID,0,VALID,23.875,VALID,23,VALID,0.882422,
2010-11-25, 01:28:04,VALID,997.882,VALID,0,VALID,91.3189,VALID,0,VALID,23.875,VALID,23,VALID,0.753906,
2010-11-25, 01:29:04,VALID,997.832,VALID,0,VALID,91.38,VALID,0,VALID,23.8945,VALID,23,VALID,0.644531,
2010-11-25, 01:30:04,VALID,997.831,VALID,0,VALID,91.3952,VALID,0,VALID,23.8945,VALID,23,VALID,0.567969,
2010-11-25, 01:31:04,VALID,997.793,VALID,0,VALID,91.4257,VALID,0.112286,VALID,23.914,VALID,27,VALID,0.654688,
2010-11-25, 01:32:04,VALID,997.776,VALID,0,VALID,91.4639,VALID,0,VALID,23.914,VALID,29,VALID,0.513672,
2010-11-25, 01:33:04,VALID,997.778,VALID,0,VALID,91.502,VALID,0,VALID,23.9336,VALID,29,VALID,0.583984,
2010-11-25, 01:34:04,VALID,997.738,VALID,0,VALID,91.5173,VALID,0,VALID,23.914,VALID,29,VALID,0.398047,
2010-11-25, 01:35:04,VALID,997.723,VALID,0,VALID,91.5097,VALID,0,VALID,23.9336,VALID,29,VALID,0.534375,
2010-11-25, 01:36:04,VALID,997.715,VALID,0,VALID,91.5783,VALID,0,VALID,23.9336,VALID,29,VALID,0.510156,
2010-11-25, 01:37:04,VALID,997.666,VALID,0,VALID,91.6088,VALID,0,VALID,23.9122,VALID,29,VALID,0.464844,
2010-11-25, 01:38:04,VALID,997.628,VALID,0,VALID,91.6088,VALID,0.112286,VALID,23.9531,VALID,29,VALID,0.532812,
2010-11-25, 01:39:04,VALID,997.587,VALID,0,VALID,91.6165,VALID,0,VALID,23.9336,VALID,29,VALID,0.460938,
2010-11-25, 01:40:04,VALID,997.57,VALID,0,VALID,91.6546,VALID,0,VALID,23.9336,VALID,29,VALID,0.394141,
2010-11-25, 01:41:04,VALID,997.535,VALID,0,VALID,91.6317,VALID,0,VALID,23.914,VALID,29,VALID,0.141406,
2010-11-25, 01:42:04,VALID,997.525,VALID,0,VALID,91.6546,VALID,0,VALID,23.914,VALID,29,VALID,0.249609,
2010-11-25, 01:43:04,VALID,997.507,VALID,0,VALID,91.6623,VALID,0,VALID,23.914,VALID,29,VALID,0.302734,
2010-11-25, 01:44:04,VALID,997.494,VALID,0,VALID,91.6928,VALID,0,VALID,23.914,VALID,29,VALID,0.278125,
2010-11-25, 01:45:04,VALID,997.481,VALID,0,VALID,91.7004,VALID,0,VALID,23.914,VALID,29,VALID,0.265234,
2010-11-25, 01:46:04,VALID,997.473,VALID,0,VALID,91.7385,VALID,0,VALID,23.914,VALID,29,VALID,0.0773437,
2010-11-25, 01:47:04,VALID,997.48,VALID,0,VALID,91.7309,VALID,0,VALID,23.914,VALID,29,VALID,0,
2010-11-25, 01:48:04,VALID,997.487,VALID,0,VALID,91.7004,VALID,0.112286,VALID,23.9336,VALID,29,VALID,0,
2010-11-25, 01:49:04,VALID,997.458,VALID,0,VALID,91.6928,VALID,0,VALID,23.914,VALID,29,VALID,0,
2010-11-25, 01:50:04,VALID,997.443,VALID,0,VALID,91.6699,VALID,0,VALID,23.8945,VALID,29,VALID,0,
2010-11-25, 01:51:04,VALID,997.444,VALID,0,VALID,91.6317,VALID,0.112286,VALID,23.875,VALID,29,VALID,0,
2010-11-25, 01:52:04,VALID,997.444,VALID,0,VALID,91.6088,VALID,0,VALID,23.8555,VALID,29,VALID,0,
2010-11-25, 01:53:04,VALID,997.399,VALID,0,VALID,91.6317,VALID,0,VALID,23.8768,VALID,29,VALID,0,
2010-11-25, 01:54:04,VALID,997.385,VALID,0,VALID,91.6394,VALID,0,VALID,23.8342,VALID,29,VALID,0.0917969,
2010-11-25, 01:55:04,VALID,997.369,VALID,0,VALID,91.7004,VALID,0,VALID,23.875,VALID,39,VALID,0.535156,
2010-11-25, 01:56:04,VALID,997.372,VALID,0,VALID,91.7538,VALID,0,VALID,23.875,VALID,121,VALID,0.728516,
2010-11-25, 01:57:04,VALID,997.317,VALID,0,VALID,91.7233,VALID,0,VALID,23.9336,VALID,152,VALID,1.0125,
2010-11-25, 01:58:04,VALID,997.352,VALID,0,VALID,91.6165,VALID,0,VALID,24.0116,VALID,152,VALID,0.934375,
2010-11-25, 01:59:04,VALID,997.35,VALID,0,VALID,91.4181,VALID,0,VALID,24.0701,VALID,153,VALID,1.20547,
2010-11-25, 02:00:04,VALID,997.339,VALID,0,VALID,91.1358,VALID,0,VALID,24.1287,VALID,153,VALID,1.15391,
2010-11-25, 02:01:04,VALID,997.355,VALID,0,VALID,90.8383,VALID,0.112286,VALID,24.1872,VALID,153,VALID,1.10391,
2010-11-25, 02:02:04,VALID,997.374,VALID,0,VALID,90.5407,VALID,0,VALID,24.2263,VALID,153,VALID,1.13242,
2010-11-25, 02:03:04,VALID,997.363,VALID,0,VALID,90.2355,VALID,0,VALID,24.2458,VALID,159,VALID,1.12383,
2010-11-25, 02:04:04,VALID,997.368,VALID,0,VALID,90.0295,VALID,0,VALID,24.2671,VALID,159,VALID,0.801172,
2010-11-25, 02:05:04,VALID,997.337,VALID,0,VALID,89.8693,VALID,0,VALID,24.2458,VALID,159,VALID,0.846094,
2010-11-25, 02:06:04,VALID,997.344,VALID,0,VALID,89.8769,VALID,0,VALID,24.2458,VALID,159,VALID,0.546094,
2010-11-25, 02:07:04,VALID,997.323,VALID,0,VALID,89.8311,VALID,0,VALID,24.2458,VALID,159,VALID,0.409766,
2010-11-25, 02:08:04,VALID,997.348,VALID,0,VALID,89.7014,VALID,0.112286,VALID,24.2458,VALID,159,VALID,0.334375,
2010-11-25, 02:09:04,VALID,997.368,VALID,0,VALID,89.7472,VALID,0,VALID,24.2263,VALID,159,VALID,0.448047,
2010-11-25, 02:10:04,VALID,997.34,VALID,0,VALID,89.8388,VALID,0,VALID,24.2067,VALID,159,VALID,0.3,
2010-11-25, 02:11:04,VALID,997.368,VALID,0,VALID,89.8846,VALID,0,VALID,24.1872,VALID,159,VALID,0.433594,
2010-11-25, 02:12:04,VALID,997.348,VALID,0,VALID,89.9456,VALID,0.112286,VALID,24.1872,VALID,111,VALID,0.729688,
2010-11-25, 02:13:04,VALID,997.329,VALID,0,VALID,90.0143,VALID,0,VALID,24.1677,VALID,111,VALID,0.783203,
2010-11-25, 02:14:04,VALID,997.34,VALID,0,VALID,90.0982,VALID,0,VALID,24.1287,VALID,84,VALID,0.649219,
2010-11-25, 02:15:04,VALID,997.309,VALID,0,VALID,90.1974,VALID,0,VALID,24.0897,VALID,84,VALID,0.517969,
2010-11-25, 02:16:04,VALID,997.318,VALID,0,VALID,90.2203,VALID,0,VALID,24.0506,VALID,84,VALID,0.549609,
2010-11-25, 02:17:04,VALID,997.29,VALID,0,VALID,90.3194,VALID,0,VALID,24.0116,VALID,84,VALID,0.403516,
2010-11-25, 02:18:04,VALID,997.272,VALID,0,VALID,90.4263,VALID,0,VALID,23.9726,VALID,84,VALID,0.489453,
2010-11-25, 02:19:04,VALID,997.23,VALID,0,VALID,90.7085,VALID,0,VALID,23.9531,VALID,23,VALID,0.711328,
2010-11-25, 02:20:04,VALID,997.257,VALID,0,VALID,90.9374,VALID,0,VALID,23.9336,VALID,22,VALID,0.389062,
2010-11-25, 02:21:04,VALID,997.228,VALID,0,VALID,91.0595,VALID,0,VALID,23.9336,VALID,22,VALID,0.398828,
2010-11-25, 02:22:04,VALID,997.198,VALID,0,VALID,91.1587,VALID,0,VALID,23.9336,VALID,22,VALID,0.326562,
2010-11-25, 02:23:04,VALID,997.203,VALID,0,VALID,91.2503,VALID,0,VALID,23.9336,VALID,22,VALID,0.209766,
2010-11-25, 02:24:04,VALID,997.195,VALID,0,VALID,91.3113,VALID,0,VALID,23.9336,VALID,22,VALID,0,
2010-11-25, 02:25:04,VALID,997.179,VALID,0,VALID,91.3418,VALID,0,VALID,23.9159,VALID,22,VALID,0,
2010-11-25, 02:26:04,VALID,997.143,VALID,0,VALID,91.38,VALID,0,VALID,23.9372,VALID,22,VALID,0,
2010-11-25, 02:27:04,VALID,997.134,VALID,0,VALID,91.4181,VALID,0,VALID,23.8963,VALID,22,VALID,0,
2010-11-25, 02:28:04,VALID,997.109,VALID,0,VALID,91.441,VALID,0,VALID,23.8963,VALID,22,VALID,0,
2010-11-25, 02:29:04,VALID,997.134,VALID,0,VALID,91.5326,VALID,0,VALID,23.8963,VALID,22,VALID,0,
2010-11-25, 02:30:04,VALID,997.131,VALID,0,VALID,91.6012,VALID,0,VALID,23.9159,VALID,22,VALID,0.107031,
2010-11-25, 02:31:04,VALID,997.108,VALID,0,VALID,91.647,VALID,0,VALID,23.9159,VALID,22,VALID,0.845703,
2010-11-25, 02:32:04,VALID,997.074,VALID,0,VALID,91.6851,VALID,0,VALID,23.9549,VALID,186,VALID,0.810547,
2010-11-25, 02:33:04,VALID,997.037,VALID,0,VALID,91.6775,VALID,0,VALID,23.9939,VALID,186,VALID,0.919531,
2010-11-25, 02:34:04,VALID,997.019,VALID,0,VALID,91.6317,VALID,0,VALID,24.0329,VALID,174,VALID,1.25508,
2010-11-25, 02:35:04,VALID,996.976,VALID,0,VALID,91.5097,VALID,0,VALID,24.0525,VALID,181,VALID,1.2207,
2010-11-25, 02:36:04,VALID,997.02,VALID,0,VALID,91.38,VALID,0,VALID,24.1092,VALID,210,VALID,0.966406,
2010-11-25, 02:37:04,VALID,997.01,VALID,0,VALID,91.2045,VALID,0,VALID,24.1696,VALID,214,VALID,0.552344,
2010-11-25, 02:38:04,VALID,997.024,VALID,0,VALID,91.0443,VALID,0,VALID,24.1696,VALID,214,VALID,0.539844,
2010-11-25, 02:39:04,VALID,997.027,VALID,0,VALID,90.7925,VALID,0,VALID,24.1696,VALID,214,VALID,0.480859,
2010-11-25, 02:40:04,VALID,997.025,VALID,0,VALID,90.5636,VALID,0,VALID,24.1696,VALID,214,VALID,0.233594,
2010-11-25, 02:41:04,VALID,997.024,VALID,0,VALID,90.3957,VALID,0,VALID,24.1891,VALID,214,VALID,0.415234,
2010-11-25, 02:42:04,VALID,997.011,VALID,0,VALID,90.2889,VALID,0,VALID,24.15,VALID,214,VALID,0.407813,
2010-11-25, 02:43:04,VALID,997.012,VALID,0,VALID,90.2508,VALID,0,VALID,24.0915,VALID,214,VALID,0.499609,
2010-11-25, 02:44:04,VALID,997.018,VALID,0,VALID,90.1668,VALID,0,VALID,24.0329,VALID,214,VALID,0.340234,
2010-11-25, 02:45:04,VALID,997.002,VALID,0,VALID,90.1745,VALID,0,VALID,23.9549,VALID,214,VALID,0.375781,
2010-11-25, 02:46:04,VALID,997.002,VALID,0,VALID,90.3881,VALID,0,VALID,23.9159,VALID,214,VALID,0.341406,
2010-11-25, 02:47:04,VALID,997.023,VALID,0,VALID,90.617,VALID,0,VALID,23.8768,VALID,214,VALID,0.0617188,
2010-11-25, 02:48:04,VALID,997.037,VALID,0,VALID,90.8306,VALID,0,VALID,23.8378,VALID,214,VALID,0,
2010-11-25, 02:49:04,VALID,997.016,VALID,0,VALID,90.9527,VALID,0,VALID,23.7988,VALID,214,VALID,0,
2010-11-25, 02:50:04,VALID,997.053,VALID,0,VALID,91.0824,VALID,0,VALID,23.7793,VALID,214,VALID,0,
2010-11-25, 02:51:04,VALID,997.045,VALID,0,VALID,91.2121,VALID,0,VALID,23.7597,VALID,214,VALID,0.387109,
2010-11-25, 02:52:04,VALID,997.09,VALID,0,VALID,91.3571,VALID,0,VALID,23.7793,VALID,214,VALID,0.213672,
2010-11-25, 02:53:04,VALID,997.057,VALID,0,VALID,91.4486,VALID,0,VALID,23.7811,VALID,214,VALID,0.203125,
2010-11-25, 02:54:04,VALID,997.1,VALID,0,VALID,91.5326,VALID,0,VALID,23.7597,VALID,214,VALID,0.326562,
2010-11-25, 02:55:04,VALID,997.097,VALID,0,VALID,91.5631,VALID,0,VALID,23.7579,VALID,214,VALID,0.05625,
2010-11-25, 02:56:04,VALID,997.117,VALID,0,VALID,91.586,VALID,0,VALID,23.7579,VALID,214,VALID,0.23125,
2010-11-25, 02:57:04,VALID,997.152,VALID,0,VALID,91.6317,VALID,0,VALID,23.7384,VALID,214,VALID,0.144922,
2010-11-25, 02:58:04,VALID,997.164,VALID,0,VALID,91.6699,VALID,0,VALID,23.7384,VALID,214,VALID,0.351172,
2010-11-25, 02:59:04,VALID,997.172,VALID,0,VALID,91.7004,VALID,0,VALID,23.7189,VALID,214,VALID,0.374609,
2010-11-25, 03:00:04,VALID,997.168,VALID,0,VALID,91.7004,VALID,0,VALID,23.6994,VALID,214,VALID,0.433984,
2010-11-25, 03:01:04,VALID,997.144,VALID,0,VALID,91.7614,VALID,0.112286,VALID,23.6994,VALID,214,VALID,0.237891,
2010-11-25, 03:02:04,VALID,997.173,VALID,0,VALID,91.8072,VALID,0,VALID,23.6994,VALID,214,VALID,0,
2010-11-25, 03:03:04,VALID,997.171,VALID,0,VALID,91.8454,VALID,0,VALID,23.6604,VALID,214,VALID,0.177344,
2010-11-25, 03:04:04,VALID,997.172,VALID,0,VALID,91.8606,VALID,0,VALID,23.6604,VALID,214,VALID,0.396875,
2010-11-25, 03:05:04,VALID,997.166,VALID,0,VALID,91.8683,VALID,0,VALID,23.6019,VALID,243,VALID,0.701172,
2010-11-25, 03:06:04,VALID,997.208,VALID,0,VALID,91.8911,VALID,0,VALID,23.6019,VALID,331,VALID,0.83125,
2010-11-25, 03:07:04,VALID,997.241,VALID,0,VALID,91.9293,VALID,0,VALID,23.6019,VALID,331,VALID,0.821094,
2010-11-25, 03:08:04,VALID,997.219,VALID,0,VALID,91.9903,VALID,0.112286,VALID,23.5823,VALID,331,VALID,0.632813,
2010-11-25, 03:09:04,VALID,997.215,VALID,0,VALID,92.0285,VALID,0,VALID,23.5823,VALID,331,VALID,0.312891,
2010-11-25, 03:10:04,VALID,997.238,VALID,0,VALID,92.1048,VALID,0,VALID,23.5841,VALID,331,VALID,0.246094,
2010-11-25, 03:11:04,VALID,997.266,VALID,0,VALID,92.12,VALID,0,VALID,23.5628,VALID,331,VALID,0,
2010-11-25, 03:12:04,VALID,997.286,VALID,0,VALID,92.1658,VALID,0,VALID,23.5433,VALID,331,VALID,0,
2010-11-25, 03:13:04,VALID,997.284,VALID,0,VALID,92.1734,VALID,0,VALID,23.5433,VALID,331,VALID,0,
2010-11-25, 03:14:04,VALID,997.334,VALID,0,VALID,92.2268,VALID,0,VALID,23.5238,VALID,331,VALID,0.113281,
2010-11-25, 03:15:04,VALID,997.336,VALID,0,VALID,92.265,VALID,0,VALID,23.5025,VALID,331,VALID,0.265625,
2010-11-25, 03:16:04,VALID,997.32,VALID,0,VALID,92.2955,VALID,0,VALID,23.5025,VALID,331,VALID,0.157813,
2010-11-25, 03:17:04,VALID,997.301,VALID,0,VALID,92.3184,VALID,0,VALID,23.5238,VALID,331,VALID,0,
2010-11-25, 03:18:04,VALID,997.292,VALID,0,VALID,92.3566,VALID,0,VALID,23.5433,VALID,331,VALID,0.304688,
2010-11-25, 03:19:04,VALID,997.29,VALID,0,VALID,92.3718,VALID,0,VALID,23.5628,VALID,331,VALID,0.216016,
2010-11-25, 03:20:04,VALID,997.324,VALID,0,VALID,92.4023,VALID,0,VALID,23.5628,VALID,331,VALID,0,
2010-11-25, 03:21:04,VALID,997.329,VALID,0,VALID,92.41,VALID,0,VALID,23.5628,VALID,331,VALID,0.255469,
2010-11-25, 03:22:04,VALID,997.375,VALID,0,VALID,92.4023,VALID,0,VALID,23.6036,VALID,331,VALID,0.533984,
2010-11-25, 03:23:04,VALID,997.409,VALID,0,VALID,92.4252,VALID,0,VALID,23.5628,VALID,331,VALID,0.658203,
2010-11-25, 03:24:04,VALID,997.446,VALID,0,VALID,92.4176,VALID,0,VALID,23.5628,VALID,331,VALID,0.607813,
2010-11-25, 03:25:04,VALID,997.437,VALID,0,VALID,92.3871,VALID,0,VALID,23.5433,VALID,331,VALID,0.858203,
2010-11-25, 03:26:04,VALID,997.459,VALID,0,VALID,92.3413,VALID,0,VALID,23.5451,VALID,331,VALID,0.855078,
2010-11-25, 03:27:04,VALID,997.493,VALID,0,VALID,92.3184,VALID,0,VALID,23.5256,VALID,331,VALID,0.751562,
2010-11-25, 03:28:04,VALID,997.506,VALID,0,VALID,92.3108,VALID,0,VALID,23.5256,VALID,331,VALID,0.607031,
2010-11-25, 03:29:04,VALID,997.557,VALID,0,VALID,92.3337,VALID,0,VALID,23.5451,VALID,331,VALID,0.470313,
2010-11-25, 03:30:04,VALID,997.59,VALID,0,VALID,92.3794,VALID,0,VALID,23.5646,VALID,331,VALID,0.298438,
2010-11-25, 03:31:04,VALID,997.651,VALID,0,VALID,92.4023,VALID,0,VALID,23.5646,VALID,331,VALID,0.0105469,
2010-11-25, 03:32:04,VALID,997.678,VALID,0,VALID,92.4328,VALID,0,VALID,23.5646,VALID,331,VALID,0,
2010-11-25, 03:33:04,VALID,997.725,VALID,0,VALID,92.4481,VALID,0,VALID,23.5841,VALID,353,VALID,0.728906,
2010-11-25, 03:34:04,VALID,997.773,VALID,0,VALID,92.4481,VALID,0,VALID,23.5646,VALID,22,VALID,1.59609,
2010-11-25, 03:35:04,VALID,997.813,VALID,0,VALID,92.5015,VALID,0,VALID,23.6036,VALID,6,VALID,2.63164,
2010-11-25, 03:36:04,VALID,997.792,VALID,0,VALID,92.5244,VALID,0,VALID,23.6622,VALID,12,VALID,1.59648,
2010-11-25, 03:37:04,VALID,997.805,VALID,0,VALID,92.5778,VALID,0,VALID,23.7012,VALID,22,VALID,2.19336,
2010-11-25, 03:38:04,VALID,997.774,VALID,0,VALID,92.5854,VALID,0,VALID,23.7402,VALID,357,VALID,1.54023,
2010-11-25, 03:39:04,VALID,997.775,VALID,0,VALID,92.6083,VALID,0,VALID,23.7988,VALID,357,VALID,0.959375,
2010-11-25, 03:40:04,VALID,997.816,VALID,0,VALID,92.6388,VALID,0,VALID,23.8378,VALID,357,VALID,0.640625,
2010-11-25, 03:41:04,VALID,997.852,VALID,0,VALID,92.6541,VALID,0,VALID,23.8963,VALID,44,VALID,0.820313,
2010-11-25, 03:42:04,VALID,997.866,VALID,0,VALID,92.6388,VALID,0,VALID,23.8963,VALID,52,VALID,0.787109,
2010-11-25, 03:43:04,VALID,997.902,VALID,0,VALID,92.6465,VALID,0,VALID,23.9372,VALID,62,VALID,1.13633,
2010-11-25, 03:44:04,VALID,997.894,VALID,0,VALID,92.6312,VALID,0,VALID,23.9354,VALID,68,VALID,0.779688,
2010-11-25, 03:45:04,VALID,997.909,VALID,0,VALID,92.6465,VALID,0,VALID,23.9549,VALID,62,VALID,0.285937,
2010-11-25, 03:46:04,VALID,997.902,VALID,0,VALID,92.6312,VALID,0,VALID,23.9744,VALID,62,VALID,0,